Zurück zum Katalog

USA 77

AktivMilitärLEO
NORAD 21809·PAYLOAD·🇺🇸 United States

Gestartet Nov 8, 1991 von Vandenberg Space Force Base

Loading…

Nächste Überflüge (nächste 24 Stunden)

TLE

AktuellSource: Space-Track

Epoche: Sep 14, 2026, 07:57 UTC

1 21809U 91076E   26257.33188509  .00002093  00000-0  17044-3 0  9995
2 21809  63.2939 279.6133 0899057  76.3911 293.5529 13.57072228116369

Verfolge USA 77 in Echtzeit mit AllMySat

Download on the App Store